N0JVW-13 Weather Reports


time (UTC)temp
F
wind
direction
speed
knots
gust
knots
rain 1hr
in
rain 24hr
in
rain mn
in
humidity
%
barometer
mb
20260901132012 74 149 0.0 0.9 0.00 0.00 0.00 72 1014.6
20260901131553 74 155 0.0 0.9 0.00 0.00 0.00 71 1014.6
20260901131030 74 155 0.0 0.9 0.00 0.00 0.00 71 1014.6
20260901130509 74 155 0.0 0.9 0.00 0.00 0.00 71 1014.6
20260901130054 73 155 0.0 0.9 0.00 0.00 0.00 71 1014.6
20260901125527 73 155 0.0 0.9 0.00 0.00 0.00 71 1014.6
20260901125006 73 143 0.0 0.9 0.00 0.00 0.00 71 1014.6
20260901124546 73 145 0.0 0.9 0.00 0.00 0.00 71 1014.6
20260901124025 73 145 0.0 0.0 0.00 0.00 0.00 71 1014.5
20260901123505 72 145 0.0 0.0 0.00 0.00 0.00 70 1014.4
20260901123049 72 147 0.0 0.0 0.00 0.00 0.00 70 1014.4
20260901122528 72 147 0.0 0.0 0.00 0.00 0.00 69 1014.4
20260901122007 72 147 0.0 0.0 0.00 0.00 0.00 69 1014.3
20260901121552 72 147 0.0 0.0 0.00 0.00 0.00 68 1014.3
20260901121027 72 147 0.0 0.0 0.00 0.00 0.00 69 1014.2
20260901120507 72 147 0.0 0.0 0.00 0.00 0.00 70 1014.1
20260901120051 72 147 0.0 0.0 0.00 0.00 0.00 70 1014.1
20260901115530 72 147 0.0 0.0 0.00 0.00 0.00 70 1014.0
20260901115009 72 147 0.0 0.0 0.00 0.00 0.00 70 1014.0
20260901114553 73 147 0.0 0.9 0.00 0.00 0.00 71 1013.9
20260901114032 73 140 0.0 0.9 0.00 0.00 0.00 72 1013.8
20260901113512 73 140 0.0 0.0 0.00 0.00 0.00 72 1013.8
20260901113053 73 140 0.0 0.0 0.00 0.00 0.00 72 1013.8
20260901112532 73 139 0.0 0.0 0.00 0.00 0.00 72 1013.7
20260901112012 73 139 0.0 0.0 0.00 0.00 0.00 72 1013.7
20260901111605 73 140 0.0 0.0 0.00 0.00 0.00 72 1013.7
20260901111034 74 140 0.0 0.0 0.00 0.00 0.00 72 1013.5
20260901110514 74 139 0.0 0.0 0.00 0.00 0.00 71 1013.5
20260901110058 74 140 0.0 0.0 0.00 0.00 0.00 71 1013.5
20260901105538 74 140 0.0 0.0 0.00 0.00 0.00 71 1013.5
20260901105019 74 140 0.0 0.0 0.00 0.00 0.00 71 1013.4
20260901104602 74 139 0.0 0.0 0.00 0.00 0.00 71 1013.3
20260901104039 74 140 0.0 0.0 0.00 0.00 0.00 71 1013.3
20260901103520 74 140 0.0 0.0 0.00 0.00 0.00 71 1013.3
20260901103103 74 140 0.0 0.9 0.00 0.00 0.00 71 1013.4
20260901102543 74 140 0.0 0.9 0.00 0.00 0.00 71 1013.4
20260901102022 74 139 0.0 0.0 0.00 0.00 0.00 70 1013.4
20260901101504 74 140 0.0 0.0 0.00 0.00 0.00 70 1013.3
20260901101046 74 139 0.0 0.0 0.00 0.00 0.00 70 1013.4
20260901100525 74 140 0.0 0.0 0.00 0.00 0.00 70 1013.2
20260901100004 75 140 0.0 0.0 0.00 0.00 0.00 70 1013.1
20260901095548 75 140 0.0 0.9 0.00 0.00 0.00 70 1013.1
20260901095027 75 140 0.0 0.9 0.00 0.00 0.00 70 1013.2
20260901094511 75 143 0.0 0.0 0.00 0.00 0.00 70 1013.1
20260901094050 74 143 0.0 0.0 0.00 0.00 0.00 70 1013.0
20260901093530 74 143 0.0 0.0 0.00 0.00 0.00 70 1013.0
20260901093009 74 143 0.0 0.0 0.00 0.00 0.00 70 1012.9
20260901092552 74 143 0.0 0.0 0.00 0.00 0.00 70 1012.8
20260901092033 74 140 0.0 0.0 0.00 0.00 0.00 70 1012.7
20260901091514 75 140 0.0 0.9 0.00 0.00 0.00 70 1012.7
20260901091056 75 140 0.0 0.9 0.00 0.00 0.00 70 1012.7
20260901090539 75 140 0.0 0.0 0.00 0.00 0.00 70 1012.7
20260901090027 75 140 0.0 0.0 0.00 0.00 0.00 70 1012.6
20260901085559 75 140 0.0 0.0 0.00 0.00 0.00 70 1012.6
20260901085039 75 140 0.0 1.7 0.00 0.00 0.00 70 1012.6
20260901084518 75 140 0.0 1.7 0.00 0.00 0.00 69 1012.6
20260901084101 75 162 0.0 1.7 0.00 0.00 0.00 69 1012.6
20260901083540 75 139 0.0 1.7 0.00 0.00 0.00 69 1012.6
20260901083022 75 157 0.0 1.7 0.00 0.00 0.00 69 1012.7
20260901082605 75 152 0.0 0.9 0.00 0.00 0.00 68 1012.7
20260901082043 75 116 0.0 0.0 0.00 0.00 0.00 68 1012.6
20260901081522 76 158 0.0 0.0 0.00 0.00 0.00 67 1012.6
20260901081002 76 158 0.0 0.9 0.00 0.00 0.00 67 1012.6
20260901080545 76 162 0.0 0.9 0.00 0.00 0.00 67 1012.6
20260901080025 76 148 0.0 0.9 0.00 0.00 0.00 67 1012.5
20260901075504 75 158 0.0 0.9 0.00 0.00 0.00 67 1012.5
20260901075048 75 151 0.0 0.9 0.00 0.00 0.00 68 1012.4
20260901074527 75 160 0.0 0.9 0.00 0.00 0.00 70 1012.5
20260901074008 74 133 0.0 0.0 0.00 0.00 0.00 70 1012.5
20260901073550 74 133 0.0 0.0 0.00 0.00 0.00 69 1012.6
20260901073030 74 133 0.0 0.0 0.00 0.00 0.00 70 1012.6
20260901072509 75 133 0.0 0.0 0.00 0.00 0.00 69 1012.6
20260901072053 75 133 0.0 0.0 0.00 0.00 0.00 69 1012.6
20260901071532 75 133 0.0 0.0 0.00 0.00 0.00 70 1012.6
20260901071012 75 133 0.0 0.0 0.00 0.00 0.00 69 1012.6
20260901070555 75 133 0.0 0.0 0.00 0.00 0.00 69 1012.7
20260901070046 75 133 0.0 0.0 0.00 0.00 0.00 69 1012.7
20260901065515 75 133 0.0 0.0 0.00 0.00 0.00 69 1012.6
20260901065058 75 133 0.0 0.0 0.00 0.00 0.00 69 1012.6
20260901064539 75 133 0.0 0.0 0.00 0.00 0.00 70 1012.7
20260901064020 75 133 0.0 0.0 0.00 0.00 0.00 68 1012.7
20260901063600 76 133 0.0 0.0 0.00 0.00 0.00 68 1012.7
20260901063040 76 133 0.0 0.0 0.00 0.00 0.00 68 1012.7
20260901062520 76 133 0.0 0.0 0.00 0.00 0.00 68 1012.8
20260901062106 76 133 0.0 0.0 0.00 0.00 0.00 69 1012.8
20260901061543 76 133 0.0 0.0 0.00 0.00 0.00 67 1012.8
20260901061022 76 133 0.0 0.0 0.00 0.00 0.00 67 1012.8
20260901060502 76 133 0.0 0.0 0.00 0.00 0.00 66 1012.7
20260901060046 76 133 0.0 0.0 0.00 0.00 0.00 66 1012.7
20260901055524 77 133 0.0 0.0 0.00 0.00 0.00 66 1012.6
20260901055003 77 133 0.0 0.0 0.00 0.00 0.00 65 1012.6
20260901054547 77 133 0.0 0.0 0.00 0.00 0.00 65 1012.5
20260901054027 77 133 0.0 0.0 0.00 0.00 0.00 65 1012.6
20260901053505 77 133 0.0 0.0 0.00 0.00 0.00 66 1012.6
20260901053052 77 133 0.0 0.0 0.00 0.00 0.00 65 1012.5
20260901052531 77 133 0.0 0.0 0.00 0.00 0.00 64 1012.6
20260901052013 77 133 0.0 0.0 0.00 0.00 0.00 64 1012.5
20260901051555 77 133 0.0 0.0 0.00 0.00 0.00 64 1012.5
20260901051032 77 133 0.0 0.0 0.00 0.00 0.00 63 1012.5
20260901050512 78 133 0.0 0.0 0.00 0.00 0.00 63 1012.5
20260901050054 78 133 0.0 0.0 0.00 0.00 0.00 63 1012.5
20260901045533 78 133 0.0 0.0 0.00 0.00 0.00 63 1012.5
20260901045013 78 133 0.0 0.0 0.00 0.00 0.00 63 1012.4
20260901044558 78 133 0.0 0.0 0.00 0.00 0.00 62 1012.4
20260901044036 78 133 0.0 0.0 0.00 0.00 0.00 63 1012.4
20260901043514 79 133 0.0 0.0 0.00 0.00 0.00 62 1012.4
20260901043054 79 133 0.0 0.0 0.00 0.00 0.00 62 1012.4
20260901042533 79 133 0.0 0.0 0.00 0.00 0.00 61 1012.4
20260901042013 79 133 0.0 0.0 0.00 0.00 0.00 61 1012.4
20260901041557 79 133 0.0 0.0 0.00 0.00 0.00 61 1012.4
20260901041036 80 133 0.0 0.0 0.00 0.00 0.00 61 1012.4
20260901040516 80 133 0.0 0.0 0.00 0.00 0.00 61 1012.3
20260901035541 80 133 0.0 0.0 0.00 0.00 0.00 60 1012.3
20260901035020 81 133 0.0 0.0 0.00 0.00 0.00 60 1012.3
20260901034602 81 133 0.0 0.0 0.00 0.00 0.00 59 1012.3
20260901034041 81 133 0.0 0.0 0.00 0.00 0.00 59 1012.3
20260901033521 81 133 0.0 0.0 0.00 0.00 0.00 59 1012.2
20260901033106 82 133 0.0 0.0 0.00 0.00 0.00 59 1012.2
20260901032545 82 133 0.0 0.0 0.00 0.00 0.00 59 1012.2
20260901032023 82 133 0.0 0.0 0.00 0.00 0.00 58 1012.1
20260901031502 83 133 0.0 0.0 0.00 0.00 0.00 58 1012.1
20260901031046 83 133 0.0 0.0 0.00 0.00 0.00 58 1012.1
20260901030525 83 133 0.0 0.0 0.00 0.00 0.00 56 1012.1
20260901030007 84 133 0.0 0.9 0.00 0.00 0.00 56 1012.0
20260901025549 84 133 0.0 0.9 0.00 0.00 0.00 56 1012.0
20260901025032 84 148 0.0 0.0 0.00 0.00 0.00 56 1012.0
20260901024508 84 148 0.0 0.0 0.00 0.00 0.00 55 1012.0
20260901024051 85 148 0.0 0.0 0.00 0.00 0.00 55 1012.0
20260901023531 85 148 0.0 0.0 0.00 0.00 0.00 54 1012.0
20260901023011 85 148 0.0 0.0 0.00 0.00 0.00 54 1011.9
20260901022554 85 148 0.0 0.0 0.00 0.00 0.00 53 1011.9
20260901022031 85 148 0.0 0.0 0.00 0.00 0.00 53 1011.9
20260901021512 86 148 0.0 0.0 0.00 0.00 0.00 53 1011.8
20260901021056 86 148 0.0 0.0 0.00 0.00 0.00 53 1011.7
20260901020533 86 148 0.0 0.0 0.00 0.00 0.00 53 1011.6
20260901020014 86 148 0.0 0.0 0.00 0.00 0.00 53 1011.5
20260901015556 86 148 0.0 0.9 0.00 0.00 0.00 53 1011.6
20260901015035 86 148 0.0 0.9 0.00 0.00 0.00 54 1011.5
20260901014514 87 148 0.0 0.0 0.00 0.00 0.00 54 1011.5
20260901014100 87 148 0.0 0.0 0.00 0.00 0.00 54 1011.4
20260901013537 87 148 0.0 0.0 0.00 0.00 0.00 54 1011.3
20260901013026 87 148 0.0 0.0 0.00 0.00 0.00 54 1011.3
20260901012504 87 148 0.0 0.0 0.00 0.00 0.00 53 1011.2
20260901012048 88 148 0.0 0.0 0.00 0.00 0.00 53 1011.2
20260901011526 88 148 0.0 0.0 0.00 0.00 0.00 54 1011.1
20260901011006 88 148 0.0 0.0 0.00 0.00 0.00 54 1011.1
20260901010549 89 148 0.0 0.0 0.00 0.00 0.00 53 1011.0
20260901010042 89 148 0.0 0.0 0.00 0.00 0.00 52 1011.0
20260901005506 89 148 0.0 0.0 0.00 0.00 0.00 52 1011.0
20260901005050 89 148 0.0 0.0 0.00 0.00 0.00 52 1011.0
20260901004528 90 148 0.0 0.0 0.00 0.00 0.00 52 1011.0
20260901004008 90 148 0.0 0.0 0.00 0.00 0.00 51 1010.9
20260901003551 90 148 0.0 0.0 0.00 0.00 0.00 50 1010.9
20260901003031 90 148 0.0 0.0 0.00 0.00 0.00 50 1010.8
20260901002511 91 148 0.0 0.0 0.00 0.00 0.00 49 1010.9
20260901002054 91 148 0.0 0.0 0.00 0.00 0.00 48 1010.9
20260901001534 91 148 0.0 0.0 0.00 0.00 0.00 47 1010.8
20260901001011 91 148 0.0 0.0 0.00 0.00 0.00 47 1010.8
20260901000556 91 148 0.0 0.0 0.00 0.00 0.00 47 1010.9
20260901000034 92 148 0.0 0.0 0.00 0.00 0.00 47 1010.9
20260831235517 92 148 0.0 0.0 0.00 0.00 0.00 46 1010.9
20260831235102 92 148 0.0 0.0 0.00 0.00 0.00 46 1010.9
20260831234540 93 148 0.0 0.0 0.00 0.00 0.00 46 1010.8
20260831234017 93 148 0.0 0.0 0.00 0.00 0.00 44 1010.8
20260831233601 94 148 0.0 0.0 0.00 0.00 0.00 44 1010.9
20260831233040 94 148 0.0 0.9 0.00 0.00 0.00 44 1010.9
20260831232522 94 148 0.0 0.9 0.00 0.00 0.00 42 1010.8
20260831232103 94 143 0.0 0.9 0.00 0.00 0.00 42 1010.8
20260831231544 95 125 0.0 0.9 0.00 0.00 0.00 41 1010.8
20260831231022 95 125 0.0 0.9 0.00 0.00 0.00 41 1010.8
20260831230604 95 125 0.0 0.9 0.00 0.00 0.00 40 1010.8
20260831230048 95 128 0.0 0.0 0.00 0.00 0.00 41 1010.9
20260831225523 95 128 0.0 0.9 0.00 0.00 0.00 40 1010.8
20260831225003 95 144 0.0 1.7 0.00 0.00 0.00 40 1010.8
20260831224546 96 144 0.0 1.7 0.00 0.00 0.00 39 1010.8
20260831224030 96 143 0.0 1.7 0.00 0.00 0.00 39 1010.8
20260831223505 96 161 0.0 1.7 0.00 0.00 0.00 38 1010.8
20260831223053 96 139 0.0 0.9 0.00 0.00 0.00 39 1010.9
20260831222529 96 120 0.0 2.6 0.00 0.00 0.00 38 1010.9
20260831222008 96 162 0.0 2.6 0.00 0.00 0.00 38 1010.9
20260831221553 96 209 0.0 2.6 0.00 0.00 0.00 38 1010.9
20260831221032 96 165 0.0 2.6 0.00 0.00 0.00 39 1010.9
20260831220510 96 165 0.0 2.6 0.00 0.00 0.00 37 1010.9
20260831220054 96 161 0.0 2.6 0.00 0.00 0.00 38 1011.0
20260831215535 96 144 0.0 1.7 0.00 0.00 0.00 38 1010.9
20260831215019 96 138 0.0 4.3 0.00 0.00 0.00 39 1011.0
20260831214557 96 156 0.0 4.3 0.00 0.00 0.00 38 1011.0
20260831214038 96 142 0.0 0.9 0.00 0.00 0.00 39 1010.9
20260831213514 97 142 0.0 2.6 0.00 0.00 0.00 38 1010.8
20260831213059 97 127 0.9 2.6 0.00 0.00 0.00 37 1010.9
20260831212537 97 127 0.0 2.6 0.00 0.00 0.00 38 1010.9
20260831212017 97 165 0.0 2.6 0.00 0.00 0.00 37 1011.0
20260831211613 97 134 0.0 1.7 0.00 0.00 0.00 39 1010.9
20260831211039 97 176 0.0 2.6 0.00 0.00 0.00 38 1010.9
20260831210522 97 181 0.0 2.6 0.00 0.00 0.00 37 1010.9
20260831210105 97 215 0.0 2.6 0.00 0.00 0.00 36 1010.9
20260831205541 97 122 0.0 2.6 0.00 0.00 0.00 37 1010.9
20260831205020 97 119 0.0 2.6 0.00 0.00 0.00 37 1010.9
20260831204604 97 150 0.0 1.7 0.00 0.00 0.00 37 1011.0
20260831204044 97 83 0.0 3.5 0.00 0.00 0.00 38 1011.0
20260831203522 97 83 0.0 3.5 0.00 0.00 0.00 37 1011.0
20260831203009 97 133 0.0 1.7 0.00 0.00 0.00 38 1011.1
20260831202546 97 133 0.0 4.3 0.00 0.00 0.00 38 1011.1
20260831202028 97 169 0.0 4.3 0.00 0.00 0.00 37 1011.2
20260831201505 97 132 0.0 3.5 0.00 0.00 0.00 38 1011.2
20260831201052 97 132 0.0 2.6 0.00 0.00 0.00 39 1011.3
20260831200527 97 116 0.0 5.2 0.00 0.00 0.00 37 1011.2
20260831200016 97 116 0.9 5.2 0.00 0.00 0.00 38 1011.2
20260831195552 97 124 0.9 2.6 0.00 0.00 0.00 40 1011.2
20260831195028 96 148 0.0 2.6 0.00 0.00 0.00 39 1011.2
20260831194508 96 148 0.9 2.6 0.00 0.00 0.00 40 1011.2
20260831194052 96 158 0.0 3.5 0.00 0.00 0.00 40 1011.2
20260831193530 96 129 0.9 3.5 0.00 0.00 0.00 40 1011.3
20260831193011 95 330 0.0 1.7 0.00 0.00 0.00 38 1011.4
20260831192554 95 330 0.0 1.7 0.00 0.00 0.00 40 1011.4
20260831192034 96 330 0.0 2.6 0.00 0.00 0.00 40 1011.4
20260831191513 96 330 0.0 2.6 0.00 0.00 0.00 41 1011.4
20260831191059 96 331 0.0 2.6 0.00 0.00 0.00 41 1011.4
20260831190539 96 331 0.0 2.6 0.00 0.00 0.00 40 1011.5
20260831190017 96 330 0.0 2.6 0.00 0.00 0.00 39 1011.6
20260831185600 96 330 0.0 1.7 0.00 0.00 0.00 41 1011.5
20260831185041 96 330 0.0 2.6 0.00 0.00 0.00 41 1011.5
20260831184519 96 330 0.0 2.6 0.00 0.00 0.00 41 1011.6
20260831184104 96 330 0.0 1.7 0.00 0.00 0.00 40 1011.7
20260831183542 95 330 0.0 2.6 0.00 0.00 0.00 41 1011.8
20260831183022 95 330 0.0 2.6 0.00 0.00 0.00 40 1011.8
20260831182502 95 330 0.0 2.6 0.00 0.00 0.00 43 1011.9
20260831182046 95 330 0.0 2.6 0.00 0.00 0.00 41 1011.9
20260831181527 94 330 0.0 2.6 0.00 0.00 0.00 41 1011.9
20260831181005 94 330 0.9 2.6 0.00 0.00 0.00 42 1012.0
20260831180548 94 330 0.0 2.6 0.00 0.00 0.00 45 1012.0
20260831180027 93 330 0.0 2.6 0.00 0.00 0.00 43 1012.2
20260831175506 93 330 0.0 2.6 0.00 0.00 0.00 43 1012.1
20260831175049 93 211 0.0 1.7 0.00 0.00 0.00 46 1012.2
20260831174536 93 137 0.0 3.5 0.00 0.00 0.00 48 1012.2
20260831174011 92 169 0.9 3.5 0.00 0.00 0.00 49 1012.2
20260831173554 92 224 0.0 2.6 0.00 0.00 0.00 50 1012.3
20260831173032 91 224 0.0 2.6 0.00 0.00 0.00 52 1012.4
20260831172510 91 227 0.0 4.3 0.00 0.00 0.00 51 1012.5
20260831172053 90 107 0.0 4.3 0.00 0.00 0.00 51 1012.7
20260831171536 90 239 0.0 1.7 0.00 0.00 0.00 51 1012.6
20260831171013 90 239 0.0 1.7 0.00 0.00 0.00 51 1012.7
20260831170557 89 239 0.0 1.7 0.00 0.00 0.00 51 1012.8
20260831170037 89 264 0.0 1.7 0.00 0.00 0.00 51 1012.8
20260831165517 89 264 0.0 1.7 0.00 0.00 0.00 51 1012.9
20260831165101 88 264 0.0 2.6 0.00 0.00 0.00 54 1012.9
20260831164539 88 264 0.0 2.6 0.00 0.00 0.00 53 1012.9
20260831164019 88 241 0.0 2.6 0.00 0.00 0.00 54 1013.0
20260831163604 88 285 0.0 1.7 0.00 0.00 0.00 54 1013.0
20260831163042 88 285 0.0 2.6 0.00 0.00 0.00 53 1012.9
20260831162524 87 285 0.0 3.5 0.00 0.00 0.00 52 1013.0
20260831162000 87 325 0.0 3.5 0.00 0.00 0.00 56 1012.9
20260831161549 86 257 0.0 0.9 0.00 0.00 0.00 55 1013.0
20260831161024 86 257 0.0 1.7 0.00 0.00 0.00 55 1013.0
20260831160502 86 257 0.0 1.7 0.00 0.00 0.00 54 1012.9
20260831160046 86 163 0.0 1.7 0.00 0.00 0.00 54 1012.9
20260831155526 86 165 0.0 1.7 0.00 0.00 0.00 56 1013.0
20260831155006 85 254 0.0 0.9 0.00 0.00 0.00 56 1012.9
20260831154553 85 254 0.0 0.9 0.00 0.00 0.00 57 1012.9
20260831154029 85 153 0.0 0.9 0.00 0.00 0.00 58 1013.0
20260831153506 84 274 0.0 0.9 0.00 0.00 0.00 59 1012.9
20260831153053 84 127 0.0 0.9 0.00 0.00 0.00 60 1013.0
20260831152531 83 110 0.0 2.6 0.00 0.00 0.00 59 1013.1
20260831152009 83 110 0.0 2.6 0.00 0.00 0.00 61 1013.0
20260831151558 83 137 0.0 1.7 0.00 0.00 0.00 63 1013.1
20260831151035 83 149 0.0 1.7 0.00 0.00 0.00 63 1013.0
20260831150512 83 147 0.0 1.7 0.00 0.00 0.00 64 1012.9
20260831150056 82 165 0.0 0.9 0.00 0.00 0.00 66 1012.9
20260831145535 82 142 0.0 2.6 0.00 0.00 0.00 64 1013.0
20260831145017 82 141 0.0 2.6 0.00 0.00 0.00 65 1012.9
20260831144644 81 156 0.0 2.6 0.00 0.00 0.00 65 1013.0
20260831144038 81 147 0.0 2.6 0.00 0.00 0.00 66 1013.0
20260831143522 80 155 0.0 2.6 0.00 0.00 0.00 67 1013.0
20260831143104 80 165 0.0 2.6 0.00 0.00 0.00 68 1013.0
20260831142542 80 174 0.0 2.6 0.00 0.00 0.00 68 1013.1
20260831142019 79 150 0.9 2.6 0.00 0.00 0.00 67 1013.1
20260831141603 79 160 0.0 1.7 0.00 0.00 0.00 68 1013.1
20260831141042 79 163 0.0 1.7 0.00 0.00 0.00 69 1013.1
20260831140522 78 131 0.0 0.0 0.00 0.00 0.00 69 1013.1
20260831140010 78 164 0.0 0.9 0.00 0.00 0.00 69 1013.1
20260831135553 78 164 0.0 0.9 0.00 0.00 0.00 70 1013.1
20260831135033 77 127 0.0 0.9 0.00 0.00 0.00 70 1013.1
20260831134513 76 114 0.0 1.7 0.00 0.00 0.00 70 1013.1
20260831134055 76 156 0.0 1.7 0.00 0.00 0.00 70 1013.1
20260831133535 76 165 0.0 1.7 0.00 0.00 0.00 71 1013.1
20260831133016 76 171 0.0 1.7 0.00 0.00 0.00 70 1013.0
20260831132559 76 171 0.0 1.7 0.00 0.00 0.00 70 1013.0